My Profile
  1. Member Settings
  2. My Devices
  3. Sign Out
        More Settings
      Elev 338 ft, 34.602 °N 90.074 °W

      Senatobia, MS

      Summary

      Temperature (°F)MaxAverageMin
      Max Temperature9383.6370
      Avg Temperature80.1772.1558.16
      Min Temperature7261.3842
      Precipitation (in)MaxAverageMinSum
      Precipitation1.310.103.09
      Dew Point (°F)MaxAverageMin
      Dew Point73.6262.4639.35
      Wind (mph)MaxAverageMin
      Wind2314.318
      Gust Wind3021.8616
      Sea Level Pressure (in)MaxAverageMin
      Sea Level Pressure29.9229.7829.63

      Daily Observations

      DateTemp High/LowDew Pt High/LowHumidityWindMax WindWind GustPressurePrecip.Condition
      5/1/2023 70 °F / 45 °F 47 °F / 36 °F 56 % 23 mph - 29.62 in 0 in
      5/2/2023 73 °F / 45 °F 47 °F / 34 °F 56 % 22 mph - 29.67 in 0 in
      5/3/2023 76 °F / 42 °F 48 °F / 32 °F 52 % 12 mph - 29.74 in 0 in
      5/4/2023 80 °F / 44 °F 54 °F / 40 °F 58 % 9 mph - 29.78 in 0 in
      5/5/2023 74 °F / 59 °F 65 °F / 49 °F 75 % 17 mph - 29.78 in 0 in
      5/6/2023 85 °F / 63 °F 75 °F / 60 °F 87 % 18 mph - 29.81 in 0 in
      5/7/2023 86 °F / 70 °F 72 °F / 68 °F 81 % 20 mph - 29.8 in 0 in
      5/8/2023 88 °F / 68 °F 73 °F / 68 °F 80 % 18 mph - 29.73 in 0 in
      5/9/2023 93 °F / 68 °F 73 °F / 61 °F 69 % 10 mph - 29.78 in 0 in
      5/10/2023 83 °F / 68 °F 73 °F / 67 °F 87 % 15 mph - 29.8 in 0.05 in
      5/11/2023 84 °F / 67 °F 72 °F / 67 °F 93 % 21 mph - 29.73 in 1.12 in
      5/12/2023 79 °F / 67 °F 72 °F / 67 °F 95 % 17 mph - 29.81 in 1.29 in
      5/13/2023 87 °F / 66 °F 76 °F / 66 °F 89 % 15 mph - 29.87 in 0 in
      5/14/2023 93 °F / 67 °F 79 °F / 67 °F 84 % 8 mph - 29.93 in 0 in
      5/15/2023 91 °F / 69 °F 77 °F / 69 °F 81 % 10 mph - 29.9 in 0 in
      5/16/2023 88 °F / 69 °F 73 °F / 68 °F 78 % 18 mph - 29.71 in 0 in
      5/17/2023 78 °F / 64 °F 71 °F / 63 °F 84 % 14 mph - 29.66 in 0 in
      5/18/2023 88 °F / 62 °F 70 °F / 62 °F 78 % 12 mph - 29.7 in 0 in
      5/19/2023 85 °F / 65 °F 73 °F / 65 °F 85 % 10 mph - 29.78 in 0 in
      5/20/2023 75 °F / 62 °F 73 °F / 58 °F 86 % 18 mph - 29.85 in 0.02 in
      5/21/2023 78 °F / 54 °F 60 °F / 53 °F 72 % 13 mph - 29.88 in 0 in
      5/22/2023 84 °F / 58 °F 65 °F / 55 °F 72 % 9 mph - 29.79 in 0 in
      5/23/2023 82 °F / 64 °F 69 °F / 64 °F 81 % 14 mph - 29.8 in 0 in
      5/24/2023 84 °F / 59 °F 65 °F / 59 °F 75 % 16 mph - 29.81 in 0 in
      5/25/2023 85 °F / 62 °F 67 °F / 54 °F 66 % 18 mph - 29.77 in 0 in
      5/26/2023 84 °F / 61 °F 63 °F / 51 °F 62 % 17 mph - 29.85 in 0 in
      5/27/2023 81 °F / 59 °F 70 °F / 53 °F 75 % 13 mph - 29.88 in 0.61 in
      5/28/2023 87 °F / 58 °F 67 °F / 57 °F 74 % 7 mph - 29.81 in 0 in
      5/29/2023 86 °F / 59 °F 66 °F / 52 °F 64 % 10 mph - 29.76 in 0 in
      5/30/2023 88 °F / 59 °F 66 °F / 55 °F 68 % 8 mph - 29.73 in 0 in
      5/31/2023 89 °F / 64 °F 68 °F / 63 °F 71 % 12 mph - 29.74 in 0 in
      essentialaccessibility.com
      We recognize our responsibility to use data and technology for good. We may use or share your data with our data vendors. Take control of your data.
      Glossary